Location: Gälforsberget
(66.6500°N, 22.4167°E)
Time: 06:43:14
(UTC+00:00)

Cosmos 1300 Rocket - Pass Details

Date: 11 April 2026
Orbit: 596 x 618 km, 82.5° (Epoch: 10 May)

Event Time Altitude Azimuth Distance (km) Brightness Sun altitude
Exits shadow 20:40:23 18° 158° (SSE) 1,472 4.8 -12.1°
Maximum altitude 20:43:09 42° 95° (E) 864 4.0 -12.3°
Drops below altitude 10° 20:47:13 10° 25° (NNE) 1,953 6.7 -12.4°
Sets 20:49:31 0° 19° (NNE) 2,861 7.7 -12.5°
